Location: Newark
(35.9250°N, 105.0090°W)
Time: 16:11:05
(UTC+00:00)

X-37B - Visible Passes

Search period start: 26 September 2020 00:00
Search period end: 06 October 2020 00:00
Orbit: 386 x 387 km, 45.0° (Epoch: 18 September)

Date Brightness Start Highest point End Pass type
(mag) Time Alt. Az. Time Alt. Az. Time Alt. Az.
26 Sep 2.1 11:23:18 25° S 11:23:18 25° S 11:25:04 10° SSE visible
30 Sep 3.1 02:33:19 10° SW 02:34:01 15° SSW 02:34:01 15° SSW visible
01 Oct 2.1 01:35:26 10° S 01:37:53 21° SE 01:38:45 19° ESE visible
02 Oct 0.5 02:12:34 10° WSW 02:15:38 84° WSW 02:15:38 84° WSW visible
03 Oct 1.1 01:14:11 10° SW 01:17:12 43° SE 01:20:04 11° ENE visible
03 Oct 3.4 02:51:04 10° W 02:52:22 19° WNW 02:52:22 19° WNW visible
04 Oct 1.4 01:52:08 10° WSW 01:55:12 47° NNW 01:56:40 25° NE visible
05 Oct 2.9 02:31:01 10° WNW 02:33:09 20° NNW 02:33:09 20° NNW visible
